, NM

(GMT )
Holloman AFB

Weather History for KHMN - July, 2013

Change the Weather History Date:

Saturday, July 20, 2013

  Actual Average Record
Temperature  
Mean Temperature 78 °F -  
Max Temperature 90 °F 92 °F 102 °F (2004)
Min Temperature 67 °F 66 °F 64 °F (2000)
Cooling Degree Days 14    
Growing Degree Days 28 (Base 50)    
Moisture  
Dew Point 61 °F    
Average Humidity 60    
Maximum Humidity 82    
Minimum Humidity 31    
Precipitation  
Precipitation 0.01 in - - ()
Sea Level Pressure  
Sea Level Pressure 29.86 in    
Wind  
Wind Speed 9 mph (ESE)    
Max Wind Speed 23 mph    
Max Gust Speed 31 mph    
Visibility 10 miles    
Events Rain , Thunderstorm    
Averages and records for this station are not official NWS values.
T = Trace of Precipitation, MM = Missing Value Source: NWS Daily Summary

Daily Weather History Graph

Daily Weather History Graph

Search for Another Location

Airport or City:

Trip Planner

Search our weather history database for the weather conditions in past years. The results will help you decide how hot, cold, wet, or windy it might be!

Date:

Astronomy

Jul. 20, 2013 Rise Set
Actual Time 6:10 AM MDT 8:10 PM MDT
Civil Twilight 5:42 AM MDT 8:38 PM MDT
Nautical Twilight 5:09 AM MDT 9:12 PM MDT
Astronomical Twilight 4:33 AM MDT 9:48 PM MDT
Moon 6:17 PM MDT (7/20) 3:52 AM MDT (7/20)
Length of Visible Light 14h 55m
Length of Day
14h 00m
Waxing Gibbous, 94% of the Moon is Illuminated
Jul 20
Waxing Gibbous
Jul 22
Full
Jul 29
Last Quarter
Aug 6
New
Aug 14
First Quarter

Hourly Weather History & Observations

Time (MDT) Temp. Heat Index Dew Point Humidity Pressure Visibility Wind Dir Wind Speed Gust Speed Precip Events Conditions
12:58 AM 73.2 °F - 60.4 °F 64% 29.87 in 10.0 mi South 12.7 mph - N/A   Clear
1:58 AM 72.1 °F - 60.8 °F 67% 29.87 in 10.0 mi South 11.5 mph - N/A   Clear
2:58 AM 71.1 °F - 61.0 °F 70% 29.85 in 10.0 mi South 8.1 mph - N/A   Clear
3:58 AM 69.1 °F - 61.3 °F 76% 29.85 in 10.0 mi South 6.9 mph - N/A   Clear
4:58 AM 68.7 °F - 61.3 °F 77% 29.85 in 10.0 mi SSE 4.6 mph - N/A   Clear
5:58 AM 68.7 °F - 61.7 °F 78% 29.84 in 10.0 mi ESE 3.5 mph - N/A   Clear
6:58 AM 67.1 °F - 61.5 °F 82% 29.86 in 10.0 mi ENE 2.3 mph - N/A   Clear
7:58 AM 70.3 °F - 62.2 °F 75% 29.87 in 10.0 mi SSE 3.5 mph - N/A   Clear
8:58 AM 73.8 °F - 61.5 °F 65% 29.87 in 10.0 mi SSE 2.3 mph - N/A   Clear
9:58 AM 77.4 °F - 61.2 °F 57% 29.87 in 10.0 mi SE 8.1 mph - N/A   Clear
10:58 AM 79.3 °F - 60.3 °F 52% 29.87 in 10.0 mi Calm Calm - N/A   Clear
11:58 AM 81.7 °F 81.9 °F 58.8 °F 46% 29.84 in 10.0 mi SE 5.8 mph - N/A   Clear
12:58 PM 84.0 °F 83.6 °F 58.6 °F 42% 29.81 in 10.0 mi SE 6.9 mph - N/A   Partly Cloudy
1:58 PM 86.2 °F 85.0 °F 57.0 °F 37% 29.77 in 10.0 mi SSE 8.1 mph - N/A   Partly Cloudy
2:58 PM 88.0 °F 86.5 °F 56.5 °F 34% 29.74 in 10.0 mi South 10.4 mph - N/A   Clear
3:58 PM 90.1 °F 88.3 °F 56.1 °F 31% 29.71 in 10.0 mi SE 4.6 mph - N/A Thunderstorm Partly Cloudy
4:29 PM 82.4 °F 82.9 °F 60.8 °F 48% 29.94 in 9.0 mi East 16.1 mph 31.1 mph N/A Rain , Thunderstorm Light Rain
4:30 PM 82.4 °F 82.9 °F 60.8 °F 48% 29.94 in 9.0 mi ENE 18.4 mph 31.1 mph N/A Thunderstorm Light Drizzle
4:33 PM 82.4 °F 83.4 °F 62.6 °F 51% 29.94 in 8.0 mi ENE 19.6 mph 31.1 mph N/A Rain , Thunderstorm Light Thunderstorms and Rain
4:36 PM 78.8 °F - 62.6 °F 57% 29.94 in 5.0 mi NE 20.7 mph 31.1 mph N/A Rain , Thunderstorm Thunderstorms and Rain
4:49 PM 75.2 °F - 62.6 °F 65% 29.96 in 10.0 mi NNE 17.3 mph - N/A Thunderstorm Thunderstorm
4:52 PM 75.2 °F - 62.6 °F 65% 29.97 in 10.0 mi North 16.1 mph - N/A Thunderstorm Partly Cloudy
4:53 PM 75.2 °F - 62.6 °F 65% 29.97 in 10.0 mi North 16.1 mph - N/A Thunderstorm Partly Cloudy
4:58 PM 74.8 °F - 62.8 °F 66% 29.79 in 10.0 mi North 23.0 mph 28.8 mph 0.01 in Thunderstorm Partly Cloudy
5:06 PM 73.4 °F - 62.6 °F 69% 29.96 in 10.0 mi North 16.1 mph 28.8 mph N/A Thunderstorm Thunderstorm
5:35 PM 73.4 °F - 62.6 °F 69% 29.97 in 10.0 mi ENE 9.2 mph - N/A Thunderstorm Partly Cloudy
5:58 PM 77.2 °F - 59.0 °F 53% 29.77 in 10.0 mi NE 10.4 mph - N/A   Clear
6:58 PM 80.2 °F 81.1 °F 60.6 °F 51% 29.75 in 10.0 mi East 8.1 mph - N/A   Clear
7:58 PM 77.4 °F - 64.2 °F 64% 29.79 in 10.0 mi South 10.4 mph - N/A   Clear
8:58 PM 75.4 °F - 61.9 °F 63% 29.78 in 10.0 mi South 6.9 mph - N/A   Partly Cloudy
9:58 PM 73.6 °F - 61.9 °F 67% 29.81 in 10.0 mi ESE 3.5 mph - N/A   Partly Cloudy
10:58 PM 72.7 °F - 62.1 °F 69% 29.82 in 10.0 mi East 3.5 mph - N/A   Clear
11:58 PM 71.1 °F - 61.0 °F 70% 29.82 in 10.0 mi East 3.5 mph - N/A   Clear